Weather observations for the past three days for
Paris - Henry County Airport
Imperial (Metric)
Date Time (cdt) Wind (mph) Vis. (mi.) Weather Sky Cond. Temperature (ºF) Relative Humidity Wind Chill (°F) Heat Index (°F) Pressure Precipitation (in)
Air Dwpt 6 hour altimeter (in) sea level (mb) 1 hr 3 hr 6 hr
Max. Min.
19 08:15 NE 8 10.00 Mostly Cloudy BKN065 68 62.6 83% 30.12 0.0
19 07:55 NE 7 10.00 Mostly Cloudy BKN065 68 62.6 83% 30.11 0.0
19 07:35 NE 8 10.00 Fair CLR 66.2 62.6 88% 30.11 0.0
19 07:15 N 8 10.00 Fair CLR 64.4 62.6 94% 30.1 0.0
19 06:55 N 8 10.00 Fair CLR 62.6 60.8 94% 30.1 0.0
19 06:30 N 6 10.00 Partly Cloudy SCT060 62.6 60.8 94% 30.1 0.0
19 06:15 N 6 10.00 Mostly Cloudy BKN060 62.6 60.8 94% 30.1 0.0
19 05:55 N 6 10.00 Overcast OVC060 62.6 60.8 94% 30.1 0.0
19 05:35 N 5 10.00 Mostly Cloudy BKN060 60.8 59 94% 30.1 0.0
19 05:15 NE 3 10.00 Mostly Cloudy BKN060 60.8 59 94% 30.1 0.0
19 04:55 Calm 10.00 Mostly Cloudy BKN060 60.8 59 94% 30.1 0.0
19 04:35 N 3 10.00 A Few Clouds FEW060 60.8 59 94% 30.09 0.0
19 04:15 N 3 10.00 Fair CLR 62.6 60.8 94% 30.09 0.0
19 03:55 N 5 10.00 Fair CLR 60.8 60.8 100% 30.08 0.0
19 03:35 N 6 10.00 Fair CLR 60.8 59 94% 30.08 0.0
19 03:15 N 5 10.00 Fair CLR 62.6 60.8 94% 30.08 0.0
19 02:55 N 5 10.00 Fair CLR 62.6 59 88% 30.09 0.0
19 02:35 N 5 10.00 Fair CLR 62.6 60.8 94% 30.09 0.0
19 02:15 N 3 10.00 Fair CLR 62.6 60.8 94% 30.09 0.0
19 01:55 NE 3 10.00 Fair CLR 62.6 60.8 94% 30.1 0.0
19 01:35 N 5 10.00 Fair CLR 62.6 60.8 94% 30.1 0.0
19 01:15 N 5 10.00 Fair CLR 62.6 60.8 94% 30.1 0.0
19 00:55 N 3 10.00 Fair CLR 64.4 60.8 88% 30.1 0.0
19 00:35 N 5 10.00 Fair CLR 64.4 60.8 88% 30.11 0.0
19 00:15 N 5 10.00 Fair CLR 64.4 60.8 88% 30.11 0.0
18 23:55 N 5 10.00 Fair CLR 64.4 60.8 88% 30.1 0.0
18 23:35 N 6 10.00 Fair CLR 64.4 60.8 88% 30.1 0.0
18 23:15 N 5 10.00 Fair CLR 66.2 60.8 83% 30.11 0.0
18 22:55 NE 5 10.00 Fair CLR 66.2 62.6 88% 30.1 0.0
18 22:35 N 6 10.00 Fair CLR 68 62.6 83% 30.1 0.0
18 22:15 N 5 10.00 Fair CLR 68 62.6 83% 30.1 0.0
18 21:55 N 7 10.00 Fair CLR 68 62.6 83% 30.1 0.0
18 21:35 N 6 10.00 Fair CLR 68 62.6 83% 30.09 0.0
18 21:15 N 5 10.00 A Few Clouds FEW050 69.8 62.6 78% 30.09 0.0
18 20:55 N 5 10.00 Fair CLR 69.8 64.4 83% 30.09 0.0
18 20:35 N 5 10.00 Fair CLR 69.8 64.4 83% 30.08 0.0
18 20:15 N 6 10.00 Fair CLR 71.6 64.4 78% 30.08 0.0
18 19:55 N 5 10.00 Fair CLR 73.4 62.6 69% 30.07 0.0
18 19:35 N 8 10.00 Fair CLR 75.2 62.6 65% 77 30.06 0.0
18 19:15 N 8 10.00 Fair CLR 75.2 64.4 69% 77 30.06 0.0
18 18:55 NE 10 G 18 10.00 Fair CLR 77 62.6 61% 79 30.06 0.0
18 18:35 NE 12 10.00 Fair CLR 78.8 64.4 61% 81 30.05 0.0
18 18:15 N 9 10.00 A Few Clouds FEW044 FEW050 78.8 64.4 61% 81 30.05 0.0
18 17:55 NE 13 10.00 Fair CLR 78.8 64.4 61% 81 30.05 0.0
18 17:35 N 9 G 15 10.00 A Few Clouds FEW047 78.8 64.4 61% 81 30.05 0.0
18 17:15 NE 12 G 18 10.00 Partly Cloudy SCT046 80.6 64.4 58% 82 30.05 0.0
18 16:55 NE 12 10.00 Partly Cloudy SCT045 80.6 62.6 54% 82 30.05 0.0
18 16:30 NE 13 10.00 Partly Cloudy SCT046 82.4 64.4 55% 84 30.05 0.0
18 16:15 NE 12 10.00 Partly Cloudy SCT044 82.4 64.4 55% 84 30.05 0.0
18 15:55 N 8 G 16 10.00 Fair CLR 82.4 64.4 55% 84 30.06 0.0
18 15:35 NE 9 10.00 A Few Clouds FEW044 82.4 64.4 55% 84 30.06 0.0
18 15:15 N 10 10.00 Fair CLR 82.4 64.4 55% 84 30.06 0.0
18 14:55 N 10 G 17 10.00 A Few Clouds FEW039 82.4 64.4 55% 84 30.07 0.0
18 14:35 N 9 10.00 A Few Clouds FEW040 82.4 66.2 58% 85 30.07 0.0
18 14:15 N 10 10.00 Partly Cloudy SCT038 SCT044 82.4 68 62% 85 30.08 0.0
18 13:55 N 10 10.00 Mostly Cloudy SCT035 SCT041 BKN050 82.4 68 62% 85 30.08 0.0
18 13:35 N 12 10.00 Partly Cloudy SCT033 SCT040 82.4 68 62% 85 30.08 0.0
18 13:15 N 9 10.00 A Few Clouds FEW029 80.6 69.8 70% 84 30.09 0.0
18 12:55 NE 10 10.00 A Few Clouds FEW028 FEW038 FEW060 80.6 69.8 70% 84 30.09 0.0
18 12:35 N 9 G 16 10.00 Partly Cloudy FEW028 SCT038 SCT050 80.6 69.8 70% 84 30.09 0.0
18 12:15 N 6 10.00 Mostly Cloudy SCT027 SCT035 BKN049 78.8 69.8 74% 81 30.1 0.0
18 11:55 N 10 10.00 Mostly Cloudy SCT024 BKN029 BKN043 78.8 69.8 74% 81 30.1 0.0
18 11:35 N 8 10.00 Overcast BKN022 OVC028 78.8 69.8 74% 81 30.1 0.0
18 11:15 NE 5 10.00 Overcast BKN022 OVC027 78.8 69.8 74% 81 30.09 0.0
18 10:55 N 7 10.00 Overcast OVC020 78.8 69.8 74% 81 30.09 0.0
18 10:35 N 8 10.00 Overcast BKN019 BKN024 OVC040 77 69.8 79% 79 30.08 0.0
18 10:15 N 7 10.00 Overcast OVC018 77 69.8 79% 79 30.08 0.0
18 09:55 NE 7 10.00 Mostly Cloudy BKN018 77 69.8 79% 79 30.07 0.0
18 09:35 NE 10 10.00 Partly Cloudy SCT017 77 69.8 79% 79 30.08 0.0
18 09:15 NE 10 10.00 A Few Clouds FEW016 75.2 69.8 83% 75 30.07 0.0
18 08:55 NE 12 10.00 Fair CLR 73.4 68 83% 30.06 0.0
18 08:35 N 10 10.00 Fair CLR 73.4 68 83% 30.06 0.0
18 08:15 N 8 10.00 Fair CLR 73.4 69.8 89% 30.05 0.0
18 07:55 N 13 10.00 Fair CLR 71.6 68 88% 30.04 0.0
18 07:35 N 9 10.00 Fair CLR 71.6 68 88% 30.05 0.0
18 07:15 N 8 10.00 Fair CLR 69.8 68 94% 30.04 0.0
18 06:55 N 6 10.00 Fair CLR 69.8 68 94% 30.03 0.0
18 06:35 N 6 10.00 Fair CLR 69.8 68 94% 30.03 0.0
18 06:15 N 5 10.00 A Few Clouds FEW120 69.8 68 94% 30.03 0.0
18 05:55 N 6 10.00 Partly Cloudy FEW085 SCT120 69.8 69.8 100% 30.03 0.0
18 05:35 N 7 10.00 Mostly Cloudy BKN120 69.8 69.8 100% 30.03 0.0
18 05:15 N 6 10.00 Mostly Cloudy BKN120 69.8 69.8 100% 30.02 0.0
18 04:55 N 6 10.00 Partly Cloudy SCT110 71.6 69.8 94% 30.01 0.0
18 04:35 N 6 10.00 Fair CLR 69.8 69.8 100% 30.01 0.0
18 04:10 N 5 8.00 Mostly Cloudy FEW047 BKN070 BKN080 71.6 71.6 100% 30.01 0.0
18 03:55 Calm 9.00 Overcast FEW047 SCT055 OVC080 71.6 71.6 100% 30.01 0.0
18 03:35 Calm 7.00 Overcast OVC075 71.6 71.6 100% 30.02 0.0
18 03:15 Calm 6.00 Fog/Mist FEW040 SCT075 BKN120 71.6 71.6 100% 30.01 0.0
18 02:55 Calm 10.00 Mostly Cloudy FEW006 BKN039 BKN060 71.6 71.6 100% 30.01 0.0
18 02:35 Calm 10.00 Overcast SCT024 BKN040 OVC080 71.6 71.6 100% 30.02 0.0
18 02:15 Calm 10.00 Mostly Cloudy BKN023 BKN046 BKN080 71.6 71.6 100% 30.02 0.0
18 01:55 N 8 7.00 Partly Cloudy FEW046 FEW060 SCT090 71.6 71.6 100% 30.01 0.0
18 01:35 N 6 10.00 Overcast SCT025 BKN050 OVC120 71.6 71.6 100% 30.01 0.0
18 01:15 NE 6 10.00 Overcast BKN025 OVC033 71.6 71.6 100% 30.01 0.0
18 00:55 Calm 10.00 Overcast SCT024 BKN030 OVC120 71.6 71.6 100% 30 0.0
18 00:35 Calm 10.00 Mostly Cloudy SCT028 SCT040 BKN120 71.6 71.6 100% 30 0.0
18 00:15 Calm 10.00 Mostly Cloudy FEW044 SCT050 BKN060 71.6 71.6 100% 30 0.0
17 23:55 Calm 10.00 Overcast FEW050 BKN065 OVC100 71.6 71.6 100% 30.01 0.0 0.03
17 23:25 Calm 7.00 Mostly Cloudy SCT036 BKN055 BKN075 71.6 69.8 94% 30.01 0.0
17 23:15 N 5 4.00 Fog/Mist SCT034 BKN050 OVC075 71.6 69.8 94% 30.02 0.0
17 22:55 N 9 10.00 Overcast SCT036 OVC048 73.4 69.8 89% 30.02 0.0
17 22:35 N 13 10.00 Overcast OVC036 75.2 69.8 83% 75 30.02 0.0
17 22:15 N 8 G 16 10.00 Overcast OVC035 77 71.6 83% 78 30.02 0.0
17 21:55 Calm 10.00 Overcast BKN037 BKN044 OVC080 77 69.8 79% 79 30.01 0.0
17 21:35 Calm 10.00 Overcast SCT037 BKN080 OVC090 77 69.8 79% 79 30 0.0
17 21:15 Calm 10.00 Mostly Cloudy FEW046 BKN075 BKN120 77 69.8 79% 79 30 0.0
17 20:55 Calm 10.00 Partly Cloudy SCT120 77 69.8 79% 79 29.99 0.0
17 20:35 Calm 10.00 Mostly Cloudy BKN120 77 73.4 89% 78 29.99 0.0
17 20:10 Calm 10.00 Overcast OVC110 78.8 69.8 74% 81 29.98 0.0
17 19:55 W 3 10.00 Overcast OVC110 78.8 69.8 74% 81 29.97 0.0
17 19:35 W 3 10.00 Mostly Cloudy BKN110 78.8 69.8 74% 81 29.97 0.0
17 19:15 W 6 10.00 Mostly Cloudy BKN110 80.6 71.6 74% 85 29.97 0.0
17 18:55 W 7 10.00 Partly Cloudy FEW070 SCT110 80.6 73.4 79% 85 29.96 0.0
17 18:35 W 6 10.00 Partly Cloudy SCT070 82.4 73.4 74% 88 29.96 0.0
17 18:15 W 8 10.00 Fair CLR 82.4 71.6 70% 87 29.95 0.0
17 17:55 W 8 10.00 Mostly Cloudy FEW027 SCT043 BKN050 82.4 71.6 70% 87 29.95 0.0
17 17:35 Vrbl 6 10.00 Mostly Cloudy FEW026 BKN036 BKN042 82.4 73.4 74% 88 29.94 0.0
17 17:15 Vrbl 5 10.00 Partly Cloudy FEW025 SCT040 82.4 73.4 74% 88 29.93 0.0
17 16:55 Calm 10.00 Partly Cloudy SCT024 82.4 73.4 74% 88 29.92 0.0
17 16:35 N 5 10.00 A Few Clouds FEW025 82.4 73.4 74% 88 29.91 0.0
17 16:10 Calm 10.00 Fair CLR 82.4 71.6 70% 87 29.92 0.0
17 15:55 SW 6 10.00 A Few Clouds FEW047 82.4 71.6 70% 87 29.93 0.0
17 15:35 Calm 10.00 Mostly Cloudy FEW023 SCT037 BKN047 80.6 73.4 79% 85 29.95 0.0
17 15:05 NW 7 10.00 Overcast BKN024 BKN030 OVC035 80.6 71.6 74% 85 29.96 0.0
17 14:55 W 6 10.00 Mostly Cloudy BKN024 BKN034 82.4 73.4 74% 88 29.97 0.0
17 14:35 W 8 G 17 10.00 Partly Cloudy FEW024 SCT034 SCT039 80.6 71.6 74% 85 29.98 0.0
17 14:15 W 10 G 17 10.00 Mostly Cloudy FEW023 SCT030 BKN037 80.6 73.4 79% 85 29.98 0.0
17 13:55 W 12 G 21 10.00 Mostly Cloudy SCT023 BKN035 BKN040 80.6 73.4 79% 85 30 0.0
17 13:35 W 10 G 21 10.00 Mostly Cloudy SCT022 SCT029 BKN034 80.6 73.4 79% 85 30 0.0
17 13:15 W 14 G 28 10.00 Mostly Cloudy SCT020 SCT026 BKN065 80.6 73.4 79% 85 30.02 0.0
17 12:55 W 10 G 18 10.00 Mostly Cloudy FEW065 BKN085 78.8 77 94% 83 30.03 0.0 0.02
17 12:35 W 9 G 16 10.00 Mostly Cloudy BKN075 BKN085 77 75.2 94% 78 30.03 0.0
17 12:15 W 9 9.00 Mostly Cloudy FEW027 FEW035 BKN070 77 75.2 94% 78 30.03 0.0
17 11:55 SW 14 G 20 7.00 Partly Cloudy FEW024 SCT033 SCT050 78.8 75.2 89% 82 30.03 0.0
17 11:35 SW 9 10.00 Partly Cloudy SCT060 SCT075 SCT090 80.6 75.2 84% 86 30.02 0.0
17 11:15 W 10 10.00 Mostly Cloudy SCT050 SCT075 BKN090 80.6 75.2 84% 86 30.02 0.0
17 10:55 W 13 10.00 Mostly Cloudy BKN050 BKN110 80.6 75.2 84% 86 30.01 0.0
17 10:25 W 10 10.00 A Few Clouds FEW047 80.6 77 89% 87 30 0.0
17 10:15 SW 8 10.00 Fair CLR 80.6 77 89% 87 29.99 0.0
17 09:55 SW 8 10.00 Fair CLR 80.6 75.2 84% 86 29.99 0.0
17 09:35 SW 9 10.00 Partly Cloudy SCT065 82.4 75.2 79% 89 29.98 0.0
17 09:15 SW 6 10.00 Mostly Cloudy BKN065 80.6 77 89% 87 29.98 0.0
17 08:55 SW 5 10.00 Fair CLR 80.6 77 89% 87 29.97 0.0
17 08:35 SW 6 10.00 Fair CLR 78.8 75.2 89% 82 29.97 0.0
17 08:15 SW 7 10.00 Fair CLR 78.8 75.2 89% 82 29.97 0.0
17 07:55 W 8 10.00 Fair CLR 78.8 75.2 89% 82 29.97 0.0
17 07:35 W 6 10.00 Fair CLR 77 75.2 94% 78 29.96 0.0
17 07:15 SW 5 10.00 Fair CLR 77 75.2 94% 78 29.95 0.0
17 06:55 Calm 10.00 Fair CLR 75.2 73.4 94% 74 29.95 0.0
17 06:35 Calm 10.00 A Few Clouds FEW050 75.2 73.4 94% 74 29.93 0.0
17 06:15 W 3 10.00 Fair CLR 73.4 73.4 100% 29.94 0.0
17 05:55 SW 3 10.00 A Few Clouds FEW030 73.4 71.6 94% 29.94 0.0
17 05:35 SW 5 10.00 A Few Clouds FEW030 FEW075 73.4 73.4 100% 29.93 0.0
17 05:10 W 5 10.00 Partly Cloudy FEW050 SCT075 75.2 73.4 94% 74 29.93 0.0
17 04:55 W 3 10.00 A Few Clouds FEW050 75.2 73.4 94% 74 29.93 0.0
17 04:35 Calm 10.00 A Few Clouds FEW014 77 73.4 89% 78 29.93 0.0
17 04:15 Vrbl 3 10.00 Partly Cloudy FEW015 SCT065 77 73.4 89% 78 29.93 0.0
17 03:55 W 8 10.00 A Few Clouds FEW018 FEW030 FEW050 77 75.2 94% 78 29.93 0.0
17 03:30 W 7 10.00 Overcast SCT030 BKN036 OVC050 78.8 75.2 89% 82 29.91 0.0
17 03:15 SW 7 G 13 10.00 Overcast SCT022 SCT029 OVC035 77 75.2 94% 78 29.91 0.0
17 02:55 SW 5 10.00 Overcast BKN023 OVC029 77 75.2 94% 78 29.9 0.0
17 02:35 Calm 10.00 Mostly Cloudy SCT026 BKN095 77 75.2 94% 78 29.9 0.0
17 02:15 W 3 10.00 Mostly Cloudy BKN090 78.8 75.2 89% 82 29.9 0.0
17 01:55 W 3 10.00 Mostly Cloudy BKN085 77 75.2 94% 78 29.91 0.0
17 01:35 SW 6 10.00 Fair CLR 77 75.2 94% 78 29.88 0.0
17 01:15 SW 6 10.00 A Few Clouds FEW046 FEW050 78.8 75.2 89% 82 29.87 0.0
17 00:55 SW 6 10.00 Fair CLR 78.8 75.2 89% 82 29.87 0.0
17 00:35 SW 6 10.00 Fair CLR 78.8 77 94% 83 29.87 0.0
17 00:15 SW 9 10.00 Fair CLR 78.8 77 94% 83 29.87 0.0
16 23:55 SW 8 10.00 A Few Clouds FEW044 FEW050 78.8 77 94% 83 29.88 0.0
16 23:35 S 5 10.00 Mostly Cloudy BKN047 BKN055 78.8 77 94% 83 29.89 0.0
16 23:15 Calm 10.00 Mostly Cloudy SCT047 BKN055 78.8 77 94% 83 29.9 0.0
16 22:55 Calm 10.00 A Few Clouds FEW048 FEW055 78.8 77 94% 83 29.92 0.0
16 22:30 Calm 10.00 Fair CLR 78.8 77 94% 83 29.93 0.0
16 22:15 Calm 10.00 Fair CLR 78.8 77 94% 83 29.93 0.0
16 21:55 Calm 10.00 Fair CLR 78.8 77 94% 83 29.92 0.0
16 21:35 Calm 10.00 Fair CLR 78.8 77 94% 83 29.91 0.0
16 21:15 Calm 10.00 Fair CLR 78.8 77 94% 83 29.9 0.0
16 20:55 Calm 10.00 Fair CLR 78.8 77 94% 83 29.89 0.0
16 20:35 Calm 10.00 Fair CLR 78.8 78.8 100% 83 29.89 0.0
16 20:15 Calm 10.00 Fair CLR 80.6 77 89% 87 29.9 0.0
16 19:55 Calm 10.00 Fair CLR 80.6 78.8 94% 88 29.9 0.0
16 19:35 Calm 10.00 Fair CLR 82.4 78.8 89% 92 29.89 0.0
16 19:15 Calm 10.00 Fair CLR 82.4 80.6 94% 94 29.88 0.0
16 18:55 Calm 10.00 Fair CLR 84.2 80.6 89% 98 29.88 0.0
16 18:35 W 3 10.00 Fair CLR 84.2 78.8 84% 96 29.88 0.0
16 18:10 SW 6 10.00 Fair CLR 84.2 78.8 84% 96 29.89 0.0
16 17:50 SW 3 10.00 Fair CLR 84.2 78.8 84% 96 29.89 0.0
16 17:25 SW 7 10.00 Fair CLR 86 77 75% 97 29.88 0.0
16 17:15 S 7 10.00 Fair CLR 86 77 75% 97 29.88 0.0
16 16:55 S 7 10.00 Fair CLR 86 77 75% 97 29.89 0.0
16 16:35 SW 5 10.00 Fair CLR 86 78.8 79% 99 29.92 0.0
16 16:15 S 7 10.00 Fair CLR 86 77 75% 97 29.92 0.0
16 15:55 SW 6 10.00 Fair CLR 87.8 78.8 75% 102 29.93 0.0
16 15:35 SW 8 10.00 Fair CLR 87.8 77 70% 100 29.93 0.0
16 15:15 S 7 G 14 10.00 Fair CLR 87.8 78.8 75% 102 29.95 0.0
16 14:55 SW 9 10.00 Fair CLR 87.8 78.8 75% 102 29.95 0.0
16 14:35 SW 8 10.00 Fair CLR 87.8 78.8 75% 102 29.96 0.0
16 14:15 SW 8 10.00 Fair CLR 87.8 78.8 75% 102 29.96 0.0
16 13:55 W 12 10.00 A Few Clouds FEW027 FEW034 87.8 78.8 75% 102 29.96 0.0
16 13:35 SW 8 G 15 10.00 Partly Cloudy FEW027 SCT036 87.8 78.8 75% 102 29.95 0.0
16 13:15 SW 10 10.00 A Few Clouds FEW029 FEW035 87.8 78.8 75% 102 29.94 0.0
16 12:55 SW 8 G 15 10.00 Partly Cloudy FEW029 FEW034 SCT047 87.8 77 70% 100 29.95 0.0
16 12:35 SW 9 G 18 10.00 Partly Cloudy FEW024 FEW029 SCT037 86 77 75% 97 29.96 0.0
16 12:15 SW 8 G 14 10.00 Partly Cloudy SCT026 SCT030 87.8 78.8 75% 102 29.97 0.0
16 11:55 S 7 10.00 Fair CLR 87.8 78.8 75% 102 29.97 0.0
16 11:35 S 8 10.00 A Few Clouds FEW028 87.8 78.8 75% 102 29.97 0.0
16 11:15 W 5 10.00 Fair CLR 86 77 75% 97 29.99 0.0
16 10:55 S 5 10.00 Fair CLR 86 77 75% 97 30 0.0
16 10:35 Calm 10.00 A Few Clouds FEW050 84.2 77 79% 94 30 0.0
16 10:15 Calm 10.00 Partly Cloudy SCT050 84.2 77 79% 94 30 0.0
16 09:55 Calm 10.00 Fair CLR 84.2 75.2 74% 92 29.98 0.0
16 09:35 Calm 10.00 Fair CLR 82.4 77 84% 91 29.98 0.0
16 09:15 Calm 10.00 Fair CLR 82.4 77 84% 91 29.97 0.0
16 08:55 S 5 10.00 Fair CLR 82.4 77 84% 91 29.97 0.0
16 08:35 S 8 10.00 Fair CLR 80.6 77 89% 87 29.97 0.0
Date Time (cdt) Wind (mph) Vis. (mi.) Weather Sky Cond. Air Dwpt Max. Min. Relative Humidity Wind Chill (°F) Heat Index (°F) altimeter (in) sea level (mb) 1 hr 3 hr 6 hr
6 hour
Temperature (ºF) Pressure Precipitation (in)